C/2000 CT54 (LINEAR)                                                  

Epoch 2001 June 20.0 TT = JDT 2452080.5  

T 2001 June 19.49982 TT                                 Nakano

q   3.1561133            (2000.0)            P               Q

z  +0.0003997      Peri.  272.64929     +0.25580989     +0.93489344

 +/-0.0000016      Node    18.96481     -0.25166641     +0.31013422

e   0.9987385      Incl.   49.20699     -0.93339452     +0.17260078

From 190 observations 2000 Jan. 28-2003 Dec. 6, mean residual 0".88.

   (1/a)org.= +0.000028, (1/a)fut.= +0.000548 (+/-0.000002), Q= 8.

Residuals in seconds of arc 

2000/                     010619 320  1.0+  0.1-    021009 608  0.8-  1.3+  

000128 704  0.2-  0.3-    010619 320  1.3+  0.0     021009 608  0.4-  0.9+  

000128 704  0.4+  0.0     010619 320  1.2+  0.3+    021010 349  1.6-  0.4+  

000128 704 (4.1+  1.9+)   010619 320  1.3+  0.3-    021010 349  0.2-  0.5+  

000202 704  0.2+  1.5+    010620 320  1.4+  0.5+    021010 349  1.3-  0.5+  

000202 704  0.5+  0.5+    010620 320  1.6+  0.4+    021010 349  1.1-  0.5+  

000202 704  1.3+  0.8-    010621 320  0.9+  0.6+    021011 704  0.2-  0.2+  

000206 704 (2.6+  0.6-)   010621 320  1.0+  0.3+    021011 704  0.6-  0.2-  

000206 704  1.4+  0.2+    010731 428  0.7+  0.3-    021011 704  0.5-  0.6+  

000206 704  1.1+  0.1+    010731 428  0.7+  0.3-    021011 704  0.2+  1.2+  

000206 704  1.4+  0.4-    010812 860  0.2+  0.6-    021011 704  0.7-  0.6+  

000208 704  0.4+  2.2+    010812 860  0.6+  0.0     021014 360  0.8-  0.6-  

000208 704  1.6+  0.1+    010812 860  1.1+  0.1-    021014 360  1.0-  0.3-  

000208 704  1.9+  0.2+    010813 844 (2.3+  3.0-)   021028 644  0.8-  0.8-  

000212 711  0.9+  0.3-    010813 844 (3.4+  1.3-)   021028 644  0.8-  0.9+  

000212 711  0.2+  0.5-    010813 844  1.5+  0.1-    021028 644  0.9-  0.6+  

000212 711  0.1-  0.6-    010815 829  0.5+  1.1-    021028 644  1.0-  0.5+  

000213 595  0.1+  0.6-    010815 829  0.7+  1.4-    021028 644  0.5-  0.8-  

000215 422 (2.4+  0.4+)   010815 474  0.2+  1.2-    021028 644  0.3-  0.5-  

000215 422  0.6+  0.3+    010815 474  0.5+  1.1-    021030 704  0.1+  0.2+  

000215 422  0.5+  0.6-    010815 474  0.5+  1.3-    021030 704  0.4-  0.5-  

000216 651  0.8+  0.5-    010905 844  0.7+  0.3-    021030 704  0.0   0.9+  

000216 651  0.9-  0.7-    010905 844  0.1+  1.0-    021030 704  0.7-  0.4-  

000216 651  0.7+  0.9-    010905 844  0.9+  1.0-    021030 704  1.0-  0.5-  

000216 422  1.2+  0.5+    011006 844  1.2+  1.5-    021031 699  0.2-  1.2-  

000216 422  1.2+  0.3+    011006 844 (2.6+  0.9-)   021031 699  0.9+  0.0   

000216 422  1.1+  0.4+    011006 844  0.0   0.0     021031 699  0.3+  1.0-  

000301 402  1.1+  0.5+    011113 428  0.1-  0.8-    021031 699  0.4+  0.0   

000301 402  1.1+  0.4+    011113 428  0.3-  0.6-    021102 213  0.1-  2.2+  

000301 402  0.5+  0.7+    011113 428  0.7-  0.7-    021102 213  0.2+  0.9-  

000313 360  1.0+  0.0     2002/                     021103 349 (1.0-  2.4+) 

000313 360  1.1+  0.2+    020102 428  0.5+  0.6-    021103 349  0.0   0.5+  

000314 704  0.2+  0.0     020812 704  0.6+  0.4-    021106 360  0.8-  0.1-  

000314 704  0.6+  0.5+    020812 704  1.1-  2.0+    021106 360  0.6-  0.3-  

000314 704  0.1-  0.3-    020812 704  0.8+  2.2+    021111 704  0.2-  1.0-  

000314 704  0.3+  0.8+    020815 215  0.0   1.3+    021111 704  0.9-  0.2+  

000314 704  0.3-  0.9-    020815 215  0.4+  0.5-    021111 704  0.8-  0.3-  

000330 704  1.6+  0.1+    020815 215  0.8-  0.4-    021111 704  0.1+  0.4-  

000330 704  2.1+  1.6+    020818 213  1.8-  0.4+    021111 704  0.9-  0.1+  

000330 704  1.9+  1.4+    020818 213  0.6-  0.3-    021120 644  1.6-  0.0   

000330 360  1.5+  0.1+    020818 213  0.9-  0.6+    021120 644  0.4-  0.6-  

000330 360  1.3+  0.0     020907 170  0.4+  0.8+    021120 644  0.9-  0.3-  

000408 402  0.8+  0.3+    020912 360  0.1-  0.6-    021205 704  0.4+  0.7-  

000408 402  1.1+  0.6+    020912 360  0.1+  0.3-    021205 704  0.1+  0.6+  

000408 402  0.4+  0.2-    020913 215  0.2+  0.1+    021205 704  0.5-  0.1+  

000411 402  1.3+  0.1-    020913 215  0.1+  0.2-    021205 704  0.9-  1.0+  

000411 402  1.1+  0.0     020913 215  0.1-  0.6+    021205 213  0.2+  1.8+  

000411 402  1.8+  0.8-    020914 204  0.2-  0.4+    021205 213  0.2+  1.5-  

000424 360  1.1+  0.1+    020914 204  0.2-  0.1+    021205 213  0.5+  0.6+  

000424 360  0.7+  0.3+    020914 204  0.3-  0.3-    2003/                   

000426 860  1.1+  0.6+    020928 608  2.0-  0.8+    030104 704  1.3-  0.5-  

000426 860  1.7+  1.4+    020928 608  1.5-  0.2+    030104 704  0.2+  0.5+  

000428 860  2.1+  0.4-    020928 608  1.8-  0.7+    030104 704  1.5-  1.2+  

000428 860  1.5+  0.9+    020930 704  0.3+  1.0+    030104 704  1.6-  1.9+  

000529 360  0.3+  0.5+    020930 704  0.4-  1.1+    030130 699  0.4-  0.6-  

000529 360  0.7+  0.4+    020930 704  0.2-  0.4+    030130 699  0.2+  0.5-  

000605 860  0.7+  0.7+    020930 704  2.0-  1.2+    030130 699  0.5-  0.2-  

000605 860  0.5+  1.0+    021002 704  1.9-  0.4+    030130 699  0.2+  0.3+  

000610 860 (3.3+  0.7+)   021002 704  2.2-  0.6+    030921 699  0.4+  1.6-  

000610 860  0.3-  0.6+    021002 704  1.3-  0.8+    030921 699  1.2-  0.9-  

000709 860  0.9-  2.0+    021002 704 (2.6-  0.5+)   030921 699  2.2-  1.5-  

000709 860  1.1-  1.1+    021002 704 (2.7-  1.0+)   030921 699 (2.1-  2.5-) 

2001/                     021003 704  0.1+  0.6+    031029 699 (3.3-  2.6+) 

010506 844 (4.4-  1.3+)   021003 704  0.5+  1.0+    031029 699  2.1-  0.5+  

010506 844  0.7-  0.7+    021003 704  0.8-  0.8+    031029 699 (3.0-  0.6-) 

010506 844  1.1+  0.4+    021003 704  0.1-  0.3-    031029 699  0.1-  1.7+  

010602 844  2.1-  1.4+    021003 704 (2.3-  0.2+)   031206 204  0.2-  1.1-  

010602 844  0.4+  0.9+    021005 360  0.7-  0.4-    031206 204  1.0+  1.2-  

010602 844  2.1-  0.9+    021005 360  0.7-  0.3-    031206 204  0.5+  1.5-  

010602 844  0.7-  0.4+    021009 608  0.3-  0.3+    031206 204 (3.9-  0.8-) 



NAKANO

         **** Don't distribute anyone except personal use only ****

                (C) Copyright 2004 OAA/ComputingSection

write mail from CFAD0::NAKANO on 2004-01-21 21:27:50(JST).

 



–ß‚è‚Ü‚·B